Hourly Data Report for September 10, 2018

TORONTO CITY
ONTARIO
Current Station Operator: ECCC - MSC

43°40'00.000" N
79°24'00.000" W
112.50 m
6158355
71508
XTO

Download Data

Hourly Data (September 2018)
Hourly Data Report for September 10, 2018
TIME
LST
Temp Definition
°C
Dew Point Definition
°C
Rel Hum Definition
%
Precip. Amount Definition
mm

Wind Dir Definition
10's deg

Wind Spd Definition
km/h
Visibility Definition
km
Stn Press Definition
kPa
Hmdx Definition


Wind Chill Definition


Weather Definition


00:00 16.3 8.4 60 0.0 LegendMM LegendMM   100.80     LegendNANA
01:00 16.3 9.1 62 0.0 LegendMM LegendMM   100.75     LegendNANA
02:00 16.1 9.5 65 0.0 LegendMM LegendMM   100.69     LegendNANA
03:00 14.5 10.7 78 1.2 LegendMM LegendMM   100.65     LegendNANA
04:00 14.4 11.4 82 1.9 LegendMM LegendMM   100.57     LegendNANA
05:00 14.0 11.4 84 1.0 LegendMM LegendMM   100.58     LegendNANA
06:00 14.0 11.6 86 2.0 LegendMM LegendMM   100.50     LegendNANA
07:00 13.5 11.5 88 1.9 LegendMM LegendMM   100.51     LegendNANA
08:00 13.3 11.7 90 6.3 LegendMM LegendMM   100.52     LegendNANA
09:00 13.0 11.3 90 7.0 LegendMM LegendMM   100.53     LegendNANA
10:00 12.4 10.6 89 1.4 LegendMM LegendMM   100.52     LegendNANA
11:00 12.6 10.8 89 1.0 LegendMM LegendMM   100.48     LegendNANA
12:00 12.7 10.4 86 0.3 LegendMM LegendMM   100.37     LegendNANA
13:00 13.0 10.4 85 0.0 LegendMM LegendMM   100.31     LegendNANA
14:00 12.9 11.1 89 0.9 LegendMM LegendMM   100.25     LegendNANA
15:00 13.2 11.5 90 1.5 LegendMM LegendMM   100.21     LegendNANA
16:00 13.6 12.1 91 2.2 LegendMM LegendMM   100.16     LegendNANA
17:00 14.0 12.5 91 1.3 LegendMM LegendMM   100.14     LegendNANA
18:00 14.3 12.9 91 1.1 LegendMM LegendMM   100.16     LegendNANA
19:00 14.8 13.4 91 0.7 LegendMM LegendMM   100.12     LegendNANA
20:00 15.2 13.8 91 0.7 LegendMM LegendMM   100.17     LegendNANA
21:00 15.6 14.1 91 0.2 LegendMM LegendMM   100.18     LegendNANA
22:00 15.9 14.5 91 0.0 LegendMM LegendMM   100.16     LegendNANA
23:00 16.1 14.8 92 0.2 LegendMM LegendMM   100.18     LegendNANA

Notes on Data Quality.

Legend

  • E = Estimated
  • M = Missing
  • NA = Not Available*
  • [empty] = Indicates an unobserved value
Date modified: